Weather History for Tacoma Narrows, WA

Change the Weather History Date:

Sunday, October 30, 2011

  Actual Average Record
Temperature  
Mean Temperature 50 °F -  
Max Temperature 57 °F 51 °F 60 °F (1997)
Min Temperature 42 °F 41 °F 36 °F (2006)
Degree Days  
Heating Degree Days 16    
Moisture  
Dew Point 48 °F    
Average Humidity 93    
Maximum Humidity 100    
Minimum Humidity 74    
Precipitation  
Precipitation 0.17 in - - ()
Sea Level Pressure  
Sea Level Pressure 30.09 in    
Wind  
Wind Speed 3 mph (South)    
Max Wind Speed 13 mph    
Max Gust Speed 21 mph    
Visibility 5 miles    
Events Fog , Rain    
Averages and records for this station are not official NWS values.
T = Trace of Precipitation, MM = Missing Value Source: NWS Daily Summary

Daily Weather History Graph

Daily Weather History Graph

Search for Another Location

Airport:

Trip Planner

Search our weather history database for the weather conditions in past years. The results will help you decide how hot, cold, wet, or windy it might be!

Date:

Astronomy

Oct. 30, 2011 Rise Set
Actual Time 7:50 AM PDT 5:56 PM PDT
Civil Twilight 7:18 AM PDT 6:28 PM PDT
Nautical Twilight 6:42 AM PDT 7:04 PM PDT
Astronomical Twilight 6:06 AM PDT 7:40 PM PDT
Moon 12:26 PM PDT (10/30) 9:20 PM PDT (10/30)
Length of Visible Light 11h 10m
Length of Day
10h 06m
Waxing Crescent, 21% of the Moon is Illuminated
Oct 30
Waxing Crescent
Nov 2
First Quarter
Nov 10
Full
Nov 18
Last Quarter
Nov 24
New

Hourly Weather History & Observations

Time (PDT) Temp. Windchill Dew Point Humidity Pressure Visibility Wind Dir Wind Speed Gust Speed Precip Events Conditions
12:35 AM 44.6 °F - 42.8 °F 93% 30.17 in 1.0 mi Calm Calm - N/A   Overcast
12:42 AM 44.6 °F - 44.6 °F 100% 30.18 in 2.0 mi Calm Calm - N/A   Mostly Cloudy
12:45 AM 44.6 °F - 44.6 °F 100% 30.18 in 2.5 mi Calm Calm - N/A   Mostly Cloudy
12:53 AM 42.1 °F - 42.1 °F 100% 30.18 in 2.0 mi Calm Calm - N/A   Scattered Clouds
1:17 AM 42.8 °F 40.1 °F 42.8 °F 100% 30.18 in 5.0 mi South 4.6 mph - N/A   Clear
1:53 AM 45.0 °F 43.5 °F 45.0 °F 100% 30.17 in 8.0 mi SE 3.5 mph - N/A   Clear
2:53 AM 45.0 °F 43.5 °F 45.0 °F 100% 30.14 in 9.0 mi ESE 3.5 mph - N/A   Overcast
3:10 AM 44.6 °F 43.1 °F 44.6 °F 100% 30.13 in 9.0 mi East 3.5 mph - N/A   Overcast
3:53 AM 46.9 °F - 45.0 °F 93% 30.10 in 10.0 mi Calm Calm - 0.00 in Rain Light Rain
4:02 AM 46.4 °F 45.2 °F 42.8 °F 87% 30.10 in 10.0 mi SSE 3.5 mph - 0.01 in Rain Light Rain
4:09 AM 46.4 °F - 42.8 °F 87% 30.10 in 9.0 mi Calm Calm - 0.01 in Rain Light Rain
4:53 AM 46.4 °F - 44.6 °F 93% 30.09 in 2.5 mi Calm Calm - N/A Rain Light Rain
5:12 AM 46.4 °F - 44.6 °F 93% 30.09 in 3.0 mi Calm Calm - 0.05 in Rain Light Rain
5:18 AM 46.4 °F - 44.6 °F 93% 30.09 in 2.5 mi Calm Calm - 0.06 in Rain Light Rain
5:32 AM 46.4 °F - 46.4 °F 100% 30.08 in 5.0 mi Calm Calm - 0.07 in Rain Light Rain
5:40 AM 46.4 °F - 46.4 °F 100% 30.07 in 4.0 mi Calm Calm - 0.07 in Rain Light Rain
5:53 AM 46.0 °F - 45.0 °F 96% 30.07 in 7.0 mi Calm Calm - 0.07 in   Overcast
6:42 AM 46.4 °F 44.3 °F 46.4 °F 100% 30.07 in 6.0 mi WNW 4.6 mph - 0.00 in   Overcast
6:53 AM 46.9 °F - 46.9 °F 100% 30.07 in 3.0 mi Calm Calm - 0.01 in Rain Light Rain
7:16 AM 48.2 °F - 46.4 °F 93% 30.06 in 2.5 mi Calm Calm - 0.02 in Rain Light Rain
7:25 AM 48.2 °F - 46.4 °F 93% 30.06 in 3.0 mi Calm Calm - 0.03 in Rain Light Rain
7:36 AM 46.4 °F 45.2 °F 46.4 °F 100% 30.05 in 2.0 mi East 3.5 mph - 0.03 in Rain Light Rain
7:44 AM 46.4 °F 45.2 °F 46.4 °F 100% 30.05 in 1.5 mi Variable 3.5 mph - 0.03 in Rain Light Rain
7:53 AM 46.9 °F - 46.9 °F 100% 30.05 in 0.5 mi Calm Calm - 0.03 in Fog Fog
8:17 AM 48.2 °F - 48.2 °F 100% 30.05 in 2.0 mi Calm Calm - N/A   Overcast
8:24 AM 48.2 °F - 48.2 °F 100% 30.05 in 1.0 mi Calm Calm - N/A   Overcast
8:53 AM 48.9 °F - 48.0 °F 97% 30.05 in 1.0 mi Calm Calm - N/A   Overcast
9:02 AM 48.2 °F - 48.2 °F 100% 30.05 in 3.0 mi SSE 4.6 mph - N/A   Overcast
9:25 AM 51.8 °F - 51.8 °F 100% 30.05 in 6.0 mi South 4.6 mph - N/A   Overcast
9:37 AM 51.8 °F - 51.8 °F 100% 30.05 in 2.0 mi South 3.5 mph - 0.00 in Rain Light Rain
9:53 AM 52.0 °F - 52.0 °F 100% 30.06 in 2.0 mi South 4.6 mph - 0.01 in Rain Light Rain
10:50 AM 53.6 °F - 53.6 °F 100% 30.06 in 0.8 mi South 8.1 mph - 0.03 in Rain Light Rain
10:53 AM 54.0 °F - 54.0 °F 100% 30.06 in 0.8 mi South 9.2 mph - 0.03 in Rain Light Rain
11:16 AM 55.4 °F - 53.6 °F 94% 30.06 in 2.0 mi South 11.5 mph 18.4 mph 0.00 in   Overcast
11:53 AM 57.0 °F - 55.9 °F 96% 30.07 in 2.0 mi SSW 12.7 mph - 0.00 in   Overcast
12:00 PM 57.2 °F - 55.4 °F 94% 30.07 in 3.0 mi South 12.7 mph 20.7 mph N/A   Overcast
12:53 PM 57.0 °F - 55.9 °F 96% 30.08 in 1.0 mi SSW 12.7 mph 19.6 mph 0.00 in Rain Light Rain
1:53 PM 57.0 °F - 55.9 °F 96% 30.07 in 6.0 mi SSW 9.2 mph - 0.01 in Rain Light Rain
2:53 PM 57.0 °F - 54.0 °F 89% 30.06 in 6.0 mi SW 10.4 mph - 0.00 in   Overcast
2:56 PM 55.4 °F - 53.6 °F 94% 30.06 in 10.0 mi WSW 6.9 mph - N/A   Overcast
3:53 PM 55.4 °F - 48.2 °F 77% 30.07 in 10.0 mi SSW 9.2 mph 16.1 mph N/A   Overcast
4:53 PM 55.0 °F - 48.9 °F 80% 30.08 in 10.0 mi SW 11.5 mph 19.6 mph N/A   Overcast
4:55 PM 55.4 °F - 48.2 °F 77% 30.07 in 10.0 mi SSW 11.5 mph 19.6 mph N/A   Overcast
5:53 PM 54.0 °F - 50.0 °F 86% 30.09 in 10.0 mi SSW 6.9 mph - N/A   Overcast
6:31 PM 53.6 °F - 50.0 °F 88% 30.08 in 10.0 mi SSW 9.2 mph - N/A   Overcast
6:53 PM 54.0 °F - 51.1 °F 90% 30.09 in 10.0 mi South 8.1 mph - N/A   Overcast
7:53 PM 54.0 °F - 50.0 °F 86% 30.10 in 10.0 mi SSW 9.2 mph - 0.00 in Rain Light Rain
8:00 PM 53.6 °F - 48.2 °F 82% 30.10 in 10.0 mi SSW 8.1 mph - 0.00 in Rain Light Rain
8:53 PM 51.1 °F - 45.0 °F 80% 30.11 in 10.0 mi SW 6.9 mph - 0.01 in   Overcast
9:53 PM 50.0 °F - 42.1 °F 74% 30.14 in 10.0 mi SW 9.2 mph - N/A   Mostly Cloudy
10:53 PM 46.9 °F - 39.9 °F 77% 30.18 in 10.0 mi SSW 4.6 mph - N/A   Clear
11:53 PM 46.9 °F - 39.9 °F 77% 30.21 in 10.0 mi Calm Calm - N/A   Mostly Cloudy